Dewpoint
22 20 18 16 14 14 15 17 19 21 16 13 13 14 15 16 14 16 18 20 25 33 36 38 38 39 40 41 41 39 37 37 38 36 33 31 31 31 31 30 28 26 25 25
24 23 20 18 15 11 9 9 11 12 12 15 15 16 16 17 16 16 18 24 29 30 33 36 39 40 39 40 40 39 37 37 36 32 32 30 30 29 30 28 28 28 28 27
17 16 16 17 17 15 13 13 13 12 16 18 17 17 19 18 16 18 27 28 29 30 34 38 39 40 39 39 39 37 37 36 34 32 30 30 30 31 31 30 31 30 28 22
16 9 8 9 6 5 4 5 6 6 9 13 10 15 18 22 27 30 29 30 33 36 39 42 42 41 39 39 37 36 36 35 34 32 32 31 31 31 31 31 30 30 28 26
11 7 3 2 1 1 2 4 4 4 5 5 8 12 16 36 35 33 36 36 38 39 40 41 44 43 40 38 37 36 34 32 31 31 30 30 30 30 31 30 30 30 28 25
12 8 4 7 6 5 8 10 13 16 24 29 31 21 31 39 38 38 37 36 36 38 40 43 42 41 37 35 34 32 31 31 31 31 30 29 30 30 29 29 28 28 26 24
10 9 7 9 9 11 10 16 28 28 27 32 32 35 39 40 36 37 36 36 35 38 39 40 39 36 33 32 31 31 31 31 30 30 29 29 29 29 28 27 27 26 25 24
13 11 10 13 15 15 25 28 28 26 25 27 34 37 40 38 35 35 35 36 34 37 36 38 35 34 31 31 31 31 31 30 28 28 28 28 28 28 28 27 26 25 23 23
8 13 19 18 16 22 26 27 26 29 32 27 37 37 37 35 35 34 35 36 33 34 35 36 35 34 31 30 31 30 29 27 27 27 28 28 26 26 26 26 24 23 22 22
13 13 13 13 15 18 19 27 23 26 32 34 36 37 36 34 34 34 35 34 32 33 33 34 34 33 32 31 31 29 26 26 26 26 26 27 27 27 26 25 23 22 22 21
15 18 16 16 17 17 15 16 17 24 30 33 38 37 37 36 36 35 35 34 33 33 33 32 31 31 31 31 29 27 26 26 25 25 25 25 27 27 24 23 23 22 22 22
12 14 14 15 17 16 17 16 19 24 30 35 36 35 35 36 35 34 34 33 33 32 31 30 30 30 30 31 29 27 26 25 25 25 25 25 25 24 23 22 23 23 24 24
13 15 15 16 17 15 14 19 28 31 33 36 39 37 32 35 34 33 33 33 33 32 31 30 30 29 30 30 30 28 26 26 25 24 24 25 24 21 20 20 24 26 26 26
15 16 16 17 16 16 19 19 26 33 37 37 32 32 33 33 33 32 32 31 31 31 31 30 29 29 31 31 31 30 28 26 26 25 26 26 25 23 21 19 19 21 22 22
16 17 16 16 16 16 18 21 32 36 38 32 33 33 33 31 31 32 31 30 30 31 30 30 29 29 31 31 31 29 27 27 27 27 27 27 26 23 20 19 19 20 20 18
16 23 28 29 25 25 28 29 35 36 35 33 33 32 33 33 32 31 31 30 29 28 29 30 29 30 31 31 31 29 29 29 29 28 27 27 26 24 21 19 18 18 17 17
21 25 28 33 35 36 36 35 23 23 34 34 34 33 31 30 30 30 30 31 30 30 29 30 29 31 31 31 31 30 30 30 29 28 27 27 26 22 21 20 19 19 18 19
21 21 27 36 35 32 27 28 34 36 35 34 33 31 30 30 28 28 28 28 29 29 30 30 30 30 31 31 31 30 29 29 29 28 27 26 25 23 24 24 21 20 22 19
21 23 26 24 24 26 33 36 36 34 33 31 30 29 29 29 28 27 27 27 27 27 28 29 29 30 30 31 30 30 29 28 27 27 26 26 26 25 25 25 21 20 23 21
31 31 31 36 36 37 36 35 34 32 32 31 29 28 27 27 27 27 28 27 29 28 29 28 29 29 28 28 28 28 28 27 26 26 26 26 26 25 23 21 20 23 22 21
33 31 31 32 32 33 33 33 32 30 30 29 28 27 27 26 27 27 26 26 27 29 27 28 28 28 26 26 26 27 27 26 25 25 25 24 22 22 22 23 24 24 22 20
30 30 30 30 31 30 31 32 31 30 29 28 28 27 25 25 26 27 28 26 28 28 26 28 27 26 26 26 27 27 27 26 25 25 24 24 23 23 23 23 23 23 23 21
29 30 30 30 29 29 30 30 29 28 27 27 26 26 26 26 26 25 25 26 26 28 29 30 28 27 24 29 28 27 26 26 26 25 25 25 24 24 24 24 24 23 24 22
29 29 29 29 28 27 27 28 27 27 27 27 27 27 26 28 27 26 26 26 26 27 28 29 29 27 25 30 28 28 27 27 27 27 26 26 25 25 24 23 22 23 22 22
29 29 29 30 30 28 27 27 26 26 26 26 26 26 28 29 28 27 26 25 25 26 26 27 27 27 29 29 29 28 28 28 28 28 26 26 25 24 24 24 24 24 23 22
28 29 29 28 28 27 26 26 26 26 26 25 27 28 29 28 27 26 25 24 25 24 24 26 27 28 28 28 28 29 28 28 27 27 25 25 23 22 22 21 21 21 19 18
27 26 26 26 26 26 26 25 26 27 28 27 26 27 27 27 27 26 24 25 25 25 25 26 27 27 27 27 27 27 26 25 25 23 23 23 22 22 21 19 19 18 18 17
Wind_Speed
14 15 15 18 22 25 24 24 24 25 27 31 27 24 23 23 23 20 15 12 12 11 6 5 9 10 6 10 15 17 19 18 17 16 16 16 15 12 13 14 14 13 13 12
9 12 14 21 30 30 29 29 28 29 31 26 27 29 28 25 27 17 13 10 12 12 10 9 6 8 11 12 14 17 20 18 20 22 20 20 18 14 12 14 15 15 13 12
23 13 12 20 26 28 27 27 26 28 29 27 28 28 25 26 19 18 6 10 11 13 13 6 7 5 11 12 12 14 15 18 19 21 21 20 17 16 15 18 13 12 13 14
17 11 17 21 25 24 27 28 26 28 25 28 27 20 22 14 13 14 11 9 10 11 11 12 2 7 7 9 12 13 17 19 19 19 17 18 15 14 15 16 16 13 16 15
9 13 16 28 22 18 21 23 25 27 28 27 26 22 18 13 13 6 7 8 8 9 12 12 7 3 5 6 14 16 16 20 23 25 24 23 22 19 14 19 18 14 16 17
17 18 13 26 16 15 19 22 22 20 14 19 24 18 6 13 6 6 7 9 9 11 13 14 6 5 9 12 15 16 17 19 19 17 17 17 16 13 13 17 15 15 18 16
23 19 16 29 28 24 21 14 14 16 20 12 8 15 5 3 10 7 6 7 7 8 10 9 3 7 10 12 14 15 17 19 18 17 16 15 13 15 16 16 15 16 16 14
20 22 24 9 19 21 12 11 17 19 15 14 9 14 2 8 7 8 7 6 4 6 6 5 6 9 10 11 13 17 20 18 20 20 18 16 17 16 16 15 15 15 15 14
21 19 15 17 22 6 8 19 17 15 26 15 3 6 15 4 3 3 6 7 2 6 5 6 6 8 11 12 17 19 19 21 20 19 17 17 18 17 17 15 14 14 14 14
21 25 25 26 22 20 15 12 20 21 21 20 10 11 15 1 1 2 6 6 5 4 5 3 3 6 11 17 17 20 22 21 21 20 19 14 14 14 15 14 15 15 14 14
18 24 22 25 23 15 19 19 22 24 21 27 13 14 12 7 5 4 5 4 4 3 2 3 4 7 12 15 19 19 20 19 18 18 19 18 10 10 12 11 13 14 14 15
25 22 21 24 20 23 24 24 23 25 26 22 19 8 5 6 3 3 2 3 3 7 5 4 5 8 11 14 17 19 18 17 16 16 14 14 14 10 11 13 10 10 16 17
29 27 27 29 26 27 28 24 22 22 24 24 4 9 4 5 5 5 3 7 2 3 6 6 6 10 11 13 15 17 17 17 17 17 18 15 14 13 15 15 21 21 19 17
22 20 23 26 23 20 21 23 21 25 24 22 13 8 6 7 7 5 6 3 5 5 5 6 6 6 11 9 10 13 15 18 16 16 15 13 13 13 12 13 14 14 15 17
27 26 27 25 26 27 26 21 23 28 19 7 8 6 5 4 6 8 6 6 6 8 6 6 6 8 12 12 10 14 16 14 14 14 13 13 13 14 13 12 12 13 14 13
20 14 19 22 23 20 14 25 23 24 16 11 9 9 9 10 9 8 7 5 5 6 5 7 7 10 12 13 14 15 13 14 14 13 15 14 14 14 14 14 14 14 13 13
12 24 21 21 22 18 23 20 9 4 18 14 17 9 8 10 11 10 8 6 8 8 7 8 10 11 12 15 14 12 12 13 14 14 13 12 13 13 12 12 13 14 14 17
25 24 19 27 24 19 14 3 11 15 14 16 16 11 12 8 10 8 6 8 10 10 9 10 11 12 12 11 12 12 12 11 11 11 11 11 12 11 11 10 12 12 14 18
25 19 14 4 3 3 12 13 14 15 16 17 16 12 8 8 10 7 7 8 10 10 8 10 11 11 11 12 12 10 11 11 11 11 11 11 11 9 9 9 10 10 13 16
7 8 8 9 14 14 14 14 17 16 14 14 14 12 10 9 8 8 10 12 10 10 11 11 9 11 13 10 10 9 10 11 11 10 11 11 10 11 10 10 11 10 13 14
11 12 12 14 16 14 13 13 16 16 13 11 12 12 11 9 8 8 8 9 6 9 11 9 10 10 9 9 9 10 10 10 10 10 11 10 11 10 11 11 11 10 14 13
8 9 10 11 14 13 11 11 13 14 13 12 13 12 11 10 9 9 7 11 9 10 9 7 9 10 9 9 10 10 9 10 10 11 10 11 11 11 11 12 11 11 11 12
6 7 9 9 10 11 11 11 10 12 13 13 12 12 10 10 8 8 10 8 8 7 6 7 10 11 13 6 10 10 9 9 10 11 10 10 10 10 10 10 10 10 11 11
7 7 8 9 10 10 11 10 10 10 12 12 10 8 9 11 11 11 13 13 11 6 8 9 10 12 11 7 10 10 9 9 9 9 9 8 9 8 9 10 9 9 9 10
7 7 7 8 9 9 10 11 10 10 12 11 9 6 10 7 7 10 11 10 10 8 7 7 9 10 6 8 8 9 9 8 9 9 9 7 7 7 7 8 7 8 7 8
8 7 7 3 8 9 9 8 9 9 11 10 8 9 10 11 11 12 10 9 9 9 8 7 7 5 7 7 7 7 8 9 9 8 7 7 7 7 7 8 7 8 8 8
5 5 6 5 5 6 6 5 8 8 9 10 10 8 8 9 10 10 9 9 9 9 8 6 7 6 8 8 7 8 9 8 7 8 8 7 7 6 7 7 8 7 7 8
Wind_Direction
273 283 301 289 274 265 259 265 260 271 274 277 290 301 309 314 306 297 301 316 336 31 22 342 327 328 291 204 187 181 181 185 178 149 143 138 132 143 150 145 144 124 117 108
267 263 263 263 267 272 272 274 279 281 284 291 298 299 294 286 278 289 312 350 12 1 359 348 307 299 285 239 197 184 185 181 148 145 150 146 145 157 159 117 110 114 124 130
263 254 250 255 254 258 268 270 268 265 265 270 265 264 267 270 288 292 31 18 2 352 350 5 320 276 258 235 195 185 158 144 147 150 147 144 142 139 137 125 127 136 125 103
269 279 254 255 266 269 273 273 276 278 270 264 276 273 272 339 6 31 35 11 359 341 327 323 290 279 262 193 184 163 153 146 142 140 139 128 132 143 148 141 141 136 119 118
241 240 268 277 274 289 293 292 287 288 293 290 293 285 278 83 72 34 5 20 3 340 328 315 311 291 212 187 145 147 151 149 145 144 145 155 164 163 145 133 133 126 130 127
241 253 255 262 284 294 309 290 295 302 350 344 342 290 36 90 113 77 25 16 355 344 343 322 317 157 159 157 147 148 151 145 139 146 146 143 150 145 129 122 117 108 114 119
236 247 265 272 282 275 275 289 340 340 330 346 343 307 193 169 52 46 18 3 1 10 354 352 69 124 148 152 150 146 137 132 134 134 134 131 121 120 121 124 119 116 121 128
233 247 256 257 269 267 341 346 322 320 315 314 309 318 83 93 70 30 4 346 3 46 359 358 130 141 149 153 140 136 135 131 128 128 131 130 130 129 127 132 130 135 133 131
249 253 248 262 292 304 263 306 323 326 301 289 35 344 288 358 37 26 310 303 32 48 19 19 135 154 153 147 142 138 132 131 132 130 136 141 140 141 140 143 150 149 150 141
262 262 278 281 285 291 315 304 305 318 311 323 166 195 252 245 325 331 304 329 359 21 31 54 93 155 155 150 146 138 137 139 139 140 139 145 151 151 152 158 161 163 157 150
289 283 279 280 286 310 305 321 311 314 303 311 174 189 200 195 182 213 249 295 355 66 84 112 121 137 144 147 143 143 141 145 145 144 145 143 144 151 166 172 173 171 168 159
270 276 283 289 300 300 306 307 301 300 296 311 281 173 151 86 115 164 108 327 10 113 141 146 145 139 143 146 148 145 144 144 144 142 142 144 153 126 111 99 111 175 161 157
272 283 287 286 289 291 286 289 299 296 290 294 297 308 119 132 118 98 116 109 90 112 146 151 148 150 148 153 154 153 150 146 147 149 150 160 145 128 110 85 89 95 98 115
271 283 280 263 261 268 278 288 294 288 282 275 121 125 131 151 134 123 90 86 116 134 141 134 142 158 144 155 154 153 146 149 150 152 152 145 146 143 136 130 117 111 110 122
261 264 268 275 276 275 274 275 285 281 271 179 100 106 121 133 104 102 96 105 105 110 121 137 140 142 134 137 140 132 137 150 143 150 151 147 147 142 143 143 136 133 126 124
258 299 304 297 285 276 269 263 267 235 200 124 125 108 84 87 101 97 95 104 115 114 125 133 134 143 142 146 136 138 148 147 146 147 142 149 150 150 154 154 154 153 153 146
263 257 260 258 254 247 246 246 260 278 120 114 104 119 132 116 105 95 89 85 94 103 119 127 126 130 127 132 137 142 142 141 142 142 154 155 149 153 154 159 163 164 167 161
247 268 246 214 227 218 220 148 71 99 104 107 106 103 100 101 114 108 115 115 105 96 100 116 124 127 128 127 126 124 128 131 134 140 136 136 145 154 164 170 166 170 158 163
242 254 274 236 275 12 96 97 101 104 106 113 118 116 116 111 106 127 134 117 110 109 107 117 128 129 128 116 118 130 135 137 139 140 145 150 151 156 164 161 163 151 155 159
299 305 318 64 63 97 101 105 109 109 115 123 124 120 115 111 133 143 110 81 68 115 125 134 137 129 122 128 131 131 136 138 139 140 143 151 152 142 146 156 162 164 149 158
52 59 69 78 85 85 99 116 122 126 125 129 125 124 126 135 142 130 130 111 97 118 130 146 127 128 137 143 136 135 142 144 149 148 150 151 150 158 167 167 170 174 163 171
50 72 81 90 95 98 104 113 116 124 127 123 115 123 137 138 127 90 71 118 124 133 145 136 135 142 151 158 139 142 151 152 146 148 164 164 172 180 177 171 175 181 172 168
68 79 91 97 105 110 109 110 124 131 124 127 139 152 151 150 137 137 117 114 132 141 142 137 144 144 157 141 137 144 153 157 159 162 176 175 179 181 174 169 175 175 170 171
110 101 102 113 126 125 118 121 124 124 124 131 139 136 132 110 99 84 90 122 126 119 113 127 139 150 165 157 153 159 161 162 160 165 167 170 171 170 161 162 166 162 161 160
125 130 142 171 160 119 131 130 131 135 134 126 138 128 97 86 116 107 102 109 127 118 117 132 144 156 184 146 159 164 171 170 158 150 150 150 149 150 141 140 143 146 145 156
162 166 169 114 126 144 147 172 148 150 132 136 132 105 98 104 110 112 121 139 127 123 129 143 153 164 141 144 145 143 130 122 128 132 141 145 146 148 144 144 142 146 146 148
126 128 127 125 130 135 145 160 145 141 136 144 136 131 126 125 124 127 135 132 134 131 143 148 144 136 129 129 126 119 120 129 138 143 139 131 140 135 134 142 139 140 134 134